TimeCDT,TemperatureF,Dew PointF,Humidity,Sea Level PressureIn,VisibilityMPH,Wind Direction,Wind SpeedMPH,Gust SpeedMPH,PrecipitationIn,Events,Conditions,WindDirDegrees,DateUTC
12:15 AM,51.8,39.2,62,29.29,10.0,ESE,6.9,-,N/A,,Clear,110,2012-10-17 05:15:00
12:35 AM,51.8,41.0,67,29.29,10.0,SE,6.9,-,N/A,,Clear,130,2012-10-17 05:35:00
12:55 AM,51.8,39.2,62,29.29,10.0,ESE,5.8,-,N/A,,Clear,110,2012-10-17 05:55:00
1:15 AM,53.6,41.0,62,29.28,10.0,SE,8.1,-,N/A,,Clear,130,2012-10-17 06:15:00
1:55 AM,55.4,42.8,63,29.26,10.0,SSE,11.5,-,N/A,,Clear,150,2012-10-17 06:55:00
2:15 AM,57.2,44.6,63,29.26,10.0,South,10.4,-,N/A,,Scattered Clouds,170,2012-10-17 07:15:00
2:35 AM,55.4,46.4,72,29.26,10.0,South,13.8,18.4,N/A,,Light Drizzle,190,2012-10-17 07:35:00
2:55 AM,55.4,48.2,77,29.26,10.0,SSW,12.7,-,N/A,Rain,Light Rain,210,2012-10-17 07:55:00
3:15 AM,55.4,50.0,82,29.25,10.0,SW,8.1,-,0.03,Rain,Light Rain,220,2012-10-17 08:15:00
3:35 AM,53.6,50.0,88,29.23,10.0,WSW,5.8,-,0.04,Rain,Rain,240,2012-10-17 08:35:00
3:55 AM,53.6,50.0,88,29.22,10.0,West,3.5,-,0.04,,Light Drizzle,280,2012-10-17 08:55:00
4:15 AM,53.6,51.8,94,29.21,10.0,Calm,Calm,-,N/A,Rain,Light Rain,0,2012-10-17 09:15:00
4:35 AM,53.6,51.8,94,29.21,10.0,NE,3.5,-,N/A,Rain,Light Rain,40,2012-10-17 09:35:00
4:55 AM,51.8,50.0,94,29.21,10.0,East,4.6,-,0.01,Rain,Light Rain,80,2012-10-17 09:55:00
5:15 AM,51.8,50.0,94,29.20,10.0,NE,3.5,-,0.01,Rain,Light Rain,50,2012-10-17 10:15:00
5:35 AM,51.8,50.0,94,29.21,10.0,NE,3.5,-,0.03,Rain,Light Rain,40,2012-10-17 10:35:00
5:55 AM,51.8,50.0,94,29.21,10.0,NW,4.6,-,0.09,Rain,Rain,310,2012-10-17 10:55:00
6:15 AM,51.8,50.0,94,29.20,10.0,NNW,8.1,-,0.06,Rain,Rain,330,2012-10-17 11:15:00
6:35 AM,51.8,51.8,100,29.21,10.0,NNW,3.5,-,0.14,Rain,Heavy Rain,330,2012-10-17 11:35:00
6:56 AM,51.8,51.8,100,29.21,10.0,Calm,Calm,-,N/A,Rain,Rain,0,2012-10-17 11:56:00
7:15 AM,53.6,51.8,94,29.19,10.0,NNW,6.9,-,0.07,Rain,Rain,330,2012-10-17 12:15:00
7:35 AM,53.6,51.8,94,29.19,10.0,WNW,17.3,21.9,0.13,Rain,Light Rain,290,2012-10-17 12:35:00
7:55 AM,51.8,51.8,100,29.20,10.0,WNW,17.3,25.3,0.17,Rain,Rain,290,2012-10-17 12:55:00
8:15 AM,51.8,48.2,88,29.20,10.0,WNW,18.4,27.6,0.04,Rain,Light Rain,290,2012-10-17 13:15:00
8:35 AM,50.0,48.2,94,29.20,7.0,WNW,21.9,27.6,0.05,Rain,Light Rain,290,2012-10-17 13:35:00
8:55 AM,50.0,48.2,94,29.21,10.0,West,18.4,24.2,0.08,Rain,Light Rain,280,2012-10-17 13:55:00
9:15 AM,50.0,48.2,94,29.21,10.0,West,16.1,23.0,0.04,Rain,Rain,280,2012-10-17 14:15:00
9:35 AM,48.2,46.4,93,29.21,10.0,West,12.7,-,0.07,Rain,Light Rain,280,2012-10-17 14:35:00
9:55 AM,48.2,46.4,93,29.21,10.0,West,11.5,-,0.12,Rain,Rain,280,2012-10-17 14:55:00
10:15 AM,50.0,48.2,94,29.22,10.0,West,10.4,-,0.02,Rain,Light Rain,270,2012-10-17 15:15:00
10:35 AM,48.2,46.4,93,29.22,10.0,West,17.3,-,0.02,Rain,Light Rain,270,2012-10-17 15:35:00
10:55 AM,48.2,46.4,93,29.21,10.0,West,13.8,21.9,0.04,Rain,Light Rain,270,2012-10-17 15:55:00
11:15 AM,48.2,44.6,87,29.21,10.0,West,17.3,26.5,0.02,Rain,Light Rain,270,2012-10-17 16:15:00
11:35 AM,48.2,44.6,87,29.21,10.0,West,15.0,21.9,0.02,,Light Drizzle,270,2012-10-17 16:35:00
11:55 AM,48.2,44.6,87,29.21,10.0,West,15.0,23.0,0.02,,Overcast,270,2012-10-17 16:55:00
12:15 PM,50.0,46.4,87,29.21,10.0,West,15.0,20.7,N/A,,Mostly Cloudy,270,2012-10-17 17:15:00
12:35 PM,50.0,46.4,87,29.21,10.0,West,17.3,23.0,N/A,,Mostly Cloudy,270,2012-10-17 17:35:00
12:55 PM,51.8,46.4,82,29.21,10.0,West,13.8,20.7,N/A,,Overcast,260,2012-10-17 17:55:00
1:15 PM,53.6,46.4,77,29.21,10.0,West,16.1,25.3,N/A,,Mostly Cloudy,270,2012-10-17 18:15:00
1:35 PM,51.8,46.4,82,29.22,10.0,West,11.5,24.2,N/A,,Mostly Cloudy,270,2012-10-17 18:35:00
1:55 PM,50.0,46.4,87,29.22,4.0,West,21.9,29.9,N/A,,Drizzle,280,2012-10-17 18:55:00
2:15 PM,50.0,46.4,87,29.22,10.0,West,18.4,24.2,0.01,,Light Drizzle,280,2012-10-17 19:15:00
2:35 PM,48.2,44.6,87,29.22,10.0,West,21.9,31.1,0.01,,Overcast,280,2012-10-17 19:35:00
2:55 PM,48.2,44.6,87,29.22,10.0,WNW,20.7,29.9,0.01,,Overcast,290,2012-10-17 19:55:00
3:15 PM,48.2,42.8,82,29.24,10.0,West,20.7,32.2,N/A,,Overcast,280,2012-10-17 20:15:00
3:35 PM,46.4,42.8,87,29.24,10.0,West,21.9,31.1,N/A,,Overcast,280,2012-10-17 20:35:00
3:55 PM,46.4,42.8,87,29.25,10.0,West,16.1,27.6,N/A,,Overcast,280,2012-10-17 20:55:00
4:15 PM,46.4,41.0,81,29.26,10.0,West,21.9,-,N/A,,Overcast,280,2012-10-17 21:15:00
4:35 PM,46.4,42.8,87,29.27,5.0,West,13.8,18.4,N/A,,Light Drizzle,270,2012-10-17 21:35:00
4:55 PM,44.6,41.0,87,29.27,10.0,West,19.6,28.8,N/A,,Overcast,270,2012-10-17 21:55:00
5:15 PM,46.4,41.0,81,29.28,10.0,West,16.1,28.8,N/A,,Overcast,280,2012-10-17 22:15:00
5:35 PM,44.6,41.0,87,29.28,7.0,West,21.9,29.9,N/A,,Drizzle,280,2012-10-17 22:35:00
5:55 PM,44.6,41.0,87,29.28,10.0,WNW,20.7,32.2,0.01,Rain,Light Rain,290,2012-10-17 22:55:00
6:15 PM,44.6,41.0,87,29.29,10.0,West,20.7,31.1,N/A,,Overcast,280,2012-10-17 23:15:00
6:34 PM,44.6,39.2,81,29.29,10.0,WNW,21.9,29.9,N/A,,Overcast,290,2012-10-17 23:34:00
6:55 PM,44.6,39.2,81,29.29,10.0,West,20.7,31.1,N/A,,Overcast,280,2012-10-17 23:55:00
7:15 PM,44.6,41.0,87,29.29,10.0,West,20.7,27.6,N/A,,Drizzle,280,2012-10-18 00:15:00
7:35 PM,44.6,39.2,81,29.29,10.0,West,24.2,31.1,N/A,,Overcast,280,2012-10-18 00:35:00
7:55 PM,44.6,39.2,81,29.31,10.0,West,20.7,32.2,N/A,,Overcast,280,2012-10-18 00:55:00
8:15 PM,44.6,39.2,81,29.31,10.0,West,21.9,32.2,N/A,,Overcast,280,2012-10-18 01:15:00
8:34 PM,44.6,39.2,81,29.32,10.0,West,17.3,27.6,N/A,,Overcast,280,2012-10-18 01:34:00
8:55 PM,44.6,39.2,81,29.32,10.0,West,18.4,25.3,N/A,,Overcast,280,2012-10-18 01:55:00
9:15 PM,44.6,39.2,81,29.32,10.0,West,13.8,25.3,N/A,,Overcast,270,2012-10-18 02:15:00
9:35 PM,44.6,39.2,81,29.32,10.0,West,17.3,25.3,N/A,,Overcast,270,2012-10-18 02:35:00
9:55 PM,44.6,39.2,81,29.31,10.0,West,19.6,26.5,N/A,,Overcast,280,2012-10-18 02:55:00
10:15 PM,44.6,39.2,81,29.31,10.0,West,18.4,27.6,N/A,,Overcast,280,2012-10-18 03:15:00
10:35 PM,44.6,39.2,81,29.31,10.0,West,16.1,24.2,N/A,,Overcast,270,2012-10-18 03:35:00
10:55 PM,44.6,39.2,81,29.30,10.0,West,17.3,21.9,N/A,,Overcast,270,2012-10-18 03:55:00
11:15 PM,42.8,39.2,87,29.29,10.0,West,15.0,24.2,N/A,,Drizzle,270,2012-10-18 04:15:00
11:35 PM,42.8,39.2,87,29.28,10.0,West,17.3,23.0,N/A,,Overcast,270,2012-10-18 04:35:00
11:55 PM,42.8,39.2,87,29.27,10.0,West,19.6,26.5,N/A,,Overcast,270,2012-10-18 04:55:00